Theta_e
345 347 350 352 354 354 353 353 355 354 355 354 354 353 352 351 351 351 350 350 350 349 349 349 349 351 351 352 352 352 352 351 352 351 351 350 350 349 349 349 348 349 349 348 347 346 346 345 344 344 343 342 342 344 344 344 344 346 347 348 348 348 348 348 348 348 348 348 349 349 348 349 350 350 350 350 351 349 347 347 347 346 346 347 349
344 348 349 351 354 354 354 353 353 354 354 354 354 353 352 351 351 350 351 350 349 349 349 349 350 351 352 351 352 351 351 351 351 351 351 350 350 349 348 348 348 348 348 347 346 345 345 345 344 344 343 343 342 341 342 344 343 343 344 345 347 347 348 348 347 347 348 348 346 348 347 348 348 349 349 349 350 349 347 346 345 342 344 348 349
346 348 349 351 353 354 354 353 353 353 354 354 353 352 351 351 350 350 351 349 349 349 349 349 350 351 351 351 351 350 350 350 350 351 350 349 348 348 348 348 347 347 348 347 347 346 345 345 344 343 342 340 339 338 339 341 342 343 343 344 346 346 347 347 347 346 346 347 346 346 346 346 347 347 348 348 348 348 346 346 346 344 341 346 345
345 347 349 350 351 352 354 353 353 353 353 353 352 351 351 350 350 349 350 349 349 348 350 350 350 350 350 350 350 349 349 350 349 349 350 349 348 347 347 347 347 346 346 347 346 346 345 344 342 341 339 338 337 336 336 338 340 342 343 344 344 345 344 345 345 345 345 344 344 344 343 340 343 346 346 347 347 346 344 343 342 342 343 343 344
346 348 349 350 351 351 352 353 353 353 353 353 353 352 351 351 350 349 349 349 349 349 350 350 350 350 350 350 350 349 349 348 349 349 349 349 349 348 348 346 346 346 346 347 346 345 344 342 341 340 338 337 335 335 335 337 340 341 342 342 342 342 343 344 344 344 343 342 344 343 340 341 341 345 347 346 346 345 344 343 341 342 341 340 342
346 348 349 350 350 349 350 352 353 353 353 353 352 352 351 351 350 349 349 348 348 347 348 349 350 350 350 349 349 349 349 348 347 348 348 348 349 348 347 346 346 346 344 346 346 344 342 341 340 339 337 335 334 332 334 338 339 340 341 341 340 340 342 342 343 343 341 340 340 338 340 340 341 343 347 345 346 344 343 341 340 339 339 339 339
347 347 349 349 350 349 348 352 352 352 352 352 352 352 351 350 350 349 349 348 347 347 347 348 349 349 349 349 349 348 347 347 347 347 347 348 348 348 347 346 345 346 345 345 344 342 341 340 339 338 336 334 332 331 334 337 338 339 339 339 338 339 341 342 341 340 340 337 331 336 338 339 340 341 346 346 346 343 339 339 339 338 338 338 337
346 347 348 348 349 348 348 352 353 352 352 352 353 352 351 351 350 349 348 348 347 347 347 348 348 348 349 349 348 347 346 346 346 347 347 347 346 347 347 346 346 344 345 344 343 342 341 339 338 336 335 333 330 330 334 336 337 337 338 336 338 339 340 339 339 338 339 335 324 331 337 338 339 340 346 346 344 342 339 339 337 336 336 336 334
344 346 347 349 348 346 349 350 353 352 352 351 352 352 351 351 350 349 348 348 348 348 347 348 349 348 348 348 348 348 347 346 345 346 346 346 346 346 347 346 344 344 344 344 343 342 340 339 337 336 335 332 329 330 333 335 336 336 336 336 338 337 338 337 337 336 334 330 327 335 337 338 338 338 344 344 342 340 339 337 335 334 335 334 334
339 344 347 348 348 345 348 350 353 352 352 351 352 352 352 351 350 349 348 348 347 348 348 348 349 348 347 348 348 348 347 346 346 345 344 345 345 345 346 345 345 344 344 343 343 342 340 339 337 336 335 332 328 329 333 333 334 334 336 337 338 338 337 337 334 332 329 327 335 337 340 342 337 338 342 343 342 339 337 335 334 332 334 335 335
346 347 347 347 346 345 350 353 351 351 351 351 350 350 350 350 350 350 349 348 347 347 347 348 348 347 347 348 347 347 347 346 346 345 345 345 345 345 345 344 344 344 344 343 343 342 340 339 337 336 335 332 328 329 331 331 331 333 335 336 337 336 336 336 331 327 329 331 334 336 340 342 337 336 343 342 341 339 336 335 333 333 334 335 335
345 346 345 344 345 344 349 350 350 351 351 350 350 349 349 350 350 349 349 348 347 347 347 347 347 347 347 346 346 347 346 346 345 345 345 345 345 345 344 343 343 343 342 342 342 341 340 339 337 336 334 332 328 327 329 329 329 331 333 334 334 334 333 332 327 326 327 330 334 335 334 335 337 340 342 343 341 338 337 334 333 334 334 334 334
341 344 344 343 343 342 346 349 349 351 350 350 350 349 349 348 348 348 349 348 348 347 346 347 347 347 346 346 346 346 346 346 346 345 345 345 345 344 343 343 343 343 342 341 340 340 339 338 337 335 333 332 328 327 328 329 329 329 331 332 331 332 330 329 326 325 327 329 332 333 333 332 332 340 341 341 340 338 337 334 332 333 333 333 333
335 340 342 342 341 341 339 342 346 349 351 350 349 349 349 348 348 347 348 348 349 349 346 346 347 346 347 346 346 346 345 345 345 345 345 344 345 344 343 343 343 342 341 340 339 338 338 337 336 335 333 331 328 326 327 327 327 327 329 330 330 330 327 326 328 324 326 328 330 330 331 334 334 339 339 339 339 338 336 331 331 332 333 332 333
332 332 337 340 340 339 337 338 343 345 347 349 349 349 348 348 348 346 347 346 346 347 347 347 346 346 345 346 346 346 346 345 345 344 344 344 344 344 343 342 342 342 340 339 338 337 336 336 335 334 333 330 327 325 325 326 326 327 328 328 328 329 325 320 323 322 324 327 327 329 329 332 339 338 338 336 336 337 334 331 332 331 332 332 332
330 331 332 334 338 338 339 338 336 338 342 345 346 347 348 347 347 347 347 346 347 346 346 347 346 346 346 345 344 345 344 345 345 344 344 344 344 342 342 342 341 342 340 339 338 336 336 335 334 333 331 329 326 324 323 324 325 326 327 327 328 329 324 322 321 321 323 324 325 327 328 330 338 338 338 337 336 336 333 331 331 331 331 331 331
329 328 330 331 332 335 339 342 335 331 332 333 338 342 344 347 347 347 347 347 347 348 347 347 346 345 346 346 345 346 345 345 345 344 344 343 343 342 342 341 341 342 341 339 337 336 335 335 333 332 330 328 325 322 321 322 322 324 324 325 327 324 322 320 320 321 322 322 323 325 326 330 336 336 336 336 336 334 332 331 331 331 331 330 330
322 321 320 326 330 331 334 337 339 342 341 337 332 337 342 345 345 345 345 345 346 347 347 347 346 346 345 345 343 344 345 345 344 344 344 343 342 341 342 341 341 341 340 338 337 335 334 334 332 331 330 327 323 320 319 320 320 322 323 323 323 322 321 319 319 319 319 321 319 323 325 333 335 334 335 335 335 332 331 331 331 330 331 330 330
315 317 317 318 322 328 331 332 335 336 337 337 338 333 334 339 341 341 342 342 343 342 343 342 342 344 344 341 339 338 336 337 338 340 340 338 337 336 341 342 341 341 339 337 336 335 334 333 333 331 329 326 324 321 319 319 319 320 321 323 319 317 316 315 316 317 316 316 317 320 325 333 334 333 333 334 333 332 330 331 330 330 330 329 329
312 313 314 315 316 317 319 327 331 332 333 336 337 337 331 332 336 337 339 340 340 339 337 335 334 334 334 333 330 331 329 330 327 332 333 337 334 333 336 338 341 340 339 338 336 335 334 334 332 332 329 326 324 321 320 320 320 320 322 318 315 313 309 311 312 314 313 312 315 316 328 331 334 334 332 331 332 330 330 331 329 329 329 327 328
313 312 313 314 315 316 318 318 320 328 332 334 335 337 336 327 330 329 332 336 337 336 335 327 324 323 326 322 325 335 336 333 328 334 326 330 323 327 334 337 340 340 339 337 336 335 334 333 333 332 329 325 323 321 320 320 321 320 318 314 310 305 307 309 311 312 311 308 312 314 327 329 332 333 332 331 331 330 329 330 329 328 328 328 328
309 310 312 314 314 315 315 317 317 319 327 333 336 340 335 335 340 336 335 334 330 327 329 332 331 333 322 326 334 336 337 336 333 332 332 327 324 325 330 336 339 337 338 337 336 335 334 334 333 332 330 325 320 307 308 315 316 316 314 310 302 302 303 306 308 310 307 306 308 317 322 327 330 333 333 332 331 329 328 328 328 328 328 327 327
308 308 310 313 313 313 314 315 317 317 319 327 332 335 337 340 340 338 337 331 331 332 332 331 335 337 334 336 334 337 336 336 334 333 333 324 326 322 327 333 335 334 336 337 337 336 335 334 333 332 330 326 314 311 308 304 303 311 308 303 300 300 302 303 304 308 305 306 304 317 317 321 326 328 332 332 333 333 330 329 327 327 327 326 326
307 308 309 313 312 312 312 313 315 317 317 322 329 330 335 336 338 338 339 337 334 334 332 333 332 336 336 336 334 334 333 333 327 326 331 332 325 320 325 329 330 329 331 332 333 335 335 335 334 331 325 317 314 312 309 307 307 307 307 303 300 299 301 300 301 302 303 307 305 316 316 317 319 322 326 328 330 331 331 332 331 333 334 333 326
306 309 310 312 312 312 311 312 314 316 316 318 324 328 329 333 335 337 337 335 334 335 335 335 337 336 335 334 336 335 334 331 331 332 333 332 330 329 329 330 331 331 327 329 328 327 324 323 323 323 322 319 315 314 314 313 309 309 308 307 305 301 300 300 301 301 301 301 305 317 316 316 316 318 319 321 324 325 327 328 329 331 332 334 335
309 309 310 312 312 312 311 312 313 315 316 317 323 327 333 331 332 334 336 337 335 334 335 335 336 335 333 333 333 333 333 333 332 330 329 331 330 328 330 329 330 331 331 329 326 326 323 322 322 323 324 321 317 313 311 312 311 308 308 307 306 304 301 300 300 299 301 301 303 315 316 316 314 317 318 318 318 318 319 321 324 327 328 331 334
306 309 312 313 312 311 311 311 312 315 315 318 322 329 330 329 329 330 331 331 330 329 329 331 331 332 332 331 333 332 331 330 329 330 331 330 327 326 327 329 329 327 327 329 327 325 325 324 325 326 323 320 316 313 311 310 309 309 308 307 306 305 303 302 299 300 299 302 307 314 315 315 313 315 317 318 318 319 319 318 319 322 324 327 331
307 309 310 311 310 310 312 313 317 315 315 320 327 329 328 326 325 324 326 324 324 324 325 327 328 328 328 329 329 330 329 326 326 327 329 329 328 328 328 329 328 328 327 328 328 325 324 324 325 324 323 320 317 313 312 311 309 308 308 307 307 306 305 303 302 302 301 300 302 307 315 315 314 313 315 316 319 320 320 320 320 320 321 322 325
307 308 309 310 311 313 314 319 321 322 322 326 326 327 326 324 324 323 322 321 322 321 322 323 325 326 327 327 327 328 327 325 324 324 324 323 323 324 325 325 327 327 327 326 326 324 323 322 321 320 320 318 314 314 315 314 312 311 309 310 309 308 306 306 305 303 304 301 301 302 314 315 314 314 315 316 317 319 319 320 321 323 323 322 322
306 307 308 309 311 313 318 320 321 321 324 324 323 323 323 321 321 321 320 319 319 318 318 318 320 322 323 325 325 325 325 323 321 321 321 320 321 321 322 322 323 325 326 324 324 323 322 321 320 320 319 317 316 315 316 315 315 311 310 310 309 308 306 306 306 305 304 305 302 301 309 313 315 314 315 317 318 318 318 319 319 319 321 323 324
306 306 307 309 311 316 317 318 320 319 321 321 320 319 319 318 317 317 316 316 315 314 313 313 314 315 316 317 320 322 322 320 319 318 318 318 318 319 320 320 320 321 322 322 322 321 321 319 318 318 317 316 315 313 313 314 316 315 311 310 310 310 309 307 308 307 306 305 307 306 305 310 313 315 315 316 316 317 318 318 319 319 319 319 319
305 305 307 309 313 315 315 315 316 317 318 317 316 315 314 313 313 312 311 311 311 310 310 310 311 313 314 314 313 315 320 319 318 317 316 315 316 316 317 318 319 319 319 318 318 318 318 318 317 317 316 315 314 313 312 314 315 315 314 314 313 312 311 309 308 307 306 308 308 307 306 306 309 314 314 314 316 317 316 316 317 319 319 319 319
305 305 307 310 311 313 313 311 312 312 313 312 311 311 310 310 309 309 308 309 308 307 307 307 308 310 312 312 311 311 311 314 315 315 313 312 311 311 311 312 314 316 317 315 314 314 312 312 313 314 314 313 312 311 313 314 313 314 314 314 312 312 311 311 311 308 308 309 308 305 305 303 302 306 308 311 315 314 314 315 316 317 318 318 319
303 306 308 309 310 311 311 310 309 308 308 308 308 307 307 307 307 307 307 306 305 304 304 304 305 306 308 310 311 309 309 309 310 309 309 308 308 307 308 308 309 309 310 312 311 309 307 306 307 309 306 306 305 305 305 304 306 308 309 310 309 309 309 311 311 310 311 309 306 304 302 301 300 300 301 306 310 311 312 314 314 314 315 316 318
305 306 307 308 308 308 308 307 307 307 307 306 305 305 305 305 304 304 304 304 303 302 302 302 302 303 304 305 307 308 308 308 308 307 306 306 305 305 305 305 306 306 306 306 307 307 304 303 303 303 302 301 301 300 301 301 302 303 305 306 307 308 308 311 312 311 308 306 304 303 301 300 299 300 300 299 302 305 311 313 312 313 313 315 317
305 306 307 308 307 307 307 305 306 306 304 304 304 304 303 303 303 303 301 301 301 300 300 299 299 300 300 301 302 303 305 305 305 304 303 302 302 301 301 302 302 301 301 301 303 304 304 300 299 299 298 297 298 297 298 298 299 301 302 304 305 305 306 309 308 306 305 304 303 302 301 300 299 299 300 298 299 301 306 309 309 311 311 312 315
306 306 307 306 306 306 306 305 304 304 304 303 303 302 301 300 300 299 299 298 298 297 297 297 297 297 297 297 299 300 301 302 302 301 300 299 299 299 299 300 300 299 299 299 299 299 302 301 298 298 297 295 295 295 295 296 298 299 301 302 302 304 305 305 303 303 305 303 302 301 300 300 299 301 299 298 299 299 301 305 306 307 307 310 312
305 306 307 306 305 305 305 304 303 303 303 302 301 300 300 299 298 297 297 296 295 295 295 295 295 295 295 295 296 297 298 298 298 298 297 297 296 295 296 296 296 296 296 296 296 297 298 300 297 297 296 294 293 292 293 294 297 298 299 298 302 301 299 299 300 301 300 299 299 298 298 297 298 298 298 298 298 297 295 297 301 302 303 305 308
305 306 307 307 306 304 304 303 303 302 302 301 300 299 298 297 297 296 295 294 293 294 294 293 293 293 293 294 294 294 294 295 295 295 294 293 292 292 292 292 293 293 292 292 292 293 295 297 297 295 295 293 292 291 291 293 295 296 297 298 300 296 296 297 298 299 298 298 298 298 297 295 295 296 297 297 296 294 292 291 291 293 295 302 306
303 305 305 305 304 304 304 305 304 303 303 301 300 299 297 296 294 294 293 293 292 292 291 291 292 292 292 293 293 293 293 293 292 293 292 292 291 291 290 291 291 291 290 290 290 290 290 292 294 294 291 291 291 290 290 292 292 296 299 299 296 294 294 295 296 296 296 297 297 297 295 293 293 294 295 295 295 293 291 289 290 290 292 296 301
302 303 303 303 303 302 302 301 301 301 301 299 298 296 294 293 292 291 291 290 290 290 290 290 291 291 291 292 292 292 292 292 292 291 291 291 290 290 290 289 290 290 289 289 289 289 289 289 290 292 290 288 288 289 289 290 291 293 294 296 297 295 294 294 294 294 294 294 296 296 293 292 291 291 293 293 294 292 290 289 288 288 289 291 293
300 301 301 302 301 300 299 298 299 298 297 296 295 293 293 292 290 289 289 288 288 288 288 289 290 291 290 290 291 291 291 291 291 291 290 290 289 289 289 289 289 288 289 289 289 290 288 288 288 288 288 287 286 287 288 288 286 287 288 290 292 293 292 292 293 293 293 291 292 294 291 290 289 289 291 291 290 291 289 288 288 288 288 289 290
300 300 300 300 299 298 296 296 295 294 294 294 293 291 291 291 290 288 289 288 288 289 289 289 289 289 289 289 290 290 290 289 290 290 290 289 288 288 288 288 288 288 287 287 287 287 287 287 287 286 286 286 286 288 287 287 284 286 287 287 286 288 290 289 289 292 290 290 288 290 290 288 287 287 289 290 288 289 289 288 288 288 288 288 289
297 298 299 298 298 296 295 294 293 293 292 292 292 291 290 290 289 289 288 288 287 289 288 288 288 288 288 288 288 288 289 288 288 288 288 288 288 287 287 287 287 287 287 286 286 286 286 286 286 287 286 284 284 285 287 286 286 285 282 285 286 282 280 283 285 287 288 289 286 286 289 286 286 286 287 289 286 287 288 288 288 288 288 288 288
295 296 297 297 296 294 294 293 292 292 292 292 291 290 289 289 289 288 288 287 287 287 287 286 287 287 287 287 287 287 288 287 287 287 287 287 287 287 287 287 287 286 286 286 285 285 285 285 286 285 285 283 283 283 284 285 285 286 284 281 280 280 280 281 282 283 285 286 284 285 287 285 285 285 285 286 285 286 288 288 287 287 287 287 287
293 294 296 296 295 294 293 292 291 291 291 290 290 290 289 288 287 286 285 284 284 284 284 284 285 285 285 286 287 287 287 287 287 287 286 286 286 286 286 286 285 286 286 285 285 285 284 284 284 284 284 284 283 282 281 284 284 285 284 284 284 279 278 279 279 277 281 282 282 284 283 283 283 284 284 284 284 284 287 286 286 286 286 287 287
292 293 294 295 294 293 292 291 291 290 290 290 290 290 288 287 286 285 285 285 284 284 285 285 285 285 286 286 286 286 286 286 286 286 286 286 285 285 285 285 285 285 285 285 284 284 284 284 284 284 284 285 283 281 281 281 281 283 283 283 283 282 282 280 277 278 275 276 280 281 282 282 282 283 283 283 283 284 284 284 284 284 285 287 287
291 292 293 293 293 292 291 291 291 290 290 290 290 290 288 287 286 286 286 285 285 285 285 285 285 286 285 285 285 286 286 286 286 285 285 285 285 284 284 284 284 284 285 284 283 283 284 284 284 283 283 283 282 281 280 280 279 280 282 282 281 281 280 280 280 278 278 276 277 280 281 281 282 282 282 282 282 283 283 283 284 284 285 286 287
291 291 292 291 291 291 290 290 290 290 289 289 289 288 288 288 287 287 286 286 286 286 286 286 285 285 285 285 285 285 285 285 285 285 284 285 285 284 283 283 283 283 284 283 283 283 283 282 282 282 282 282 282 282 281 280 280 279 279 279 279 279 278 279 279 280 277 275 276 276 278 280 280 280 281 281 281 283 283 283 283 284 285 286 287
290 290 289 290 289 289 289 289 288 289 289 289 289 288 288 288 287 286 286 286 286 286 286 285 285 285 284 284 284 284 284 284 284 284 284 284 283 283 283 283 282 283 283 282 282 282 282 282 281 281 281 281 281 282 281 280 280 280 280 279 279 279 277 277 276 277 276 277 276 276 277 276 276 278 281 280 281 282 282 282 282 283 283 285 286
288 288 289 289 288 288 288 288 288 288 288 288 288 288 287 287 287 287 286 286 286 286 285 284 284 284 284 283 283 283 283 283 283 283 283 283 283 283 282 282 282 282 282 281 281 281 281 281 281 280 280 280 280 280 281 281 280 280 279 279 278 279 278 277 276 277 276 275 275 275 276 277 277 276 277 280 282 281 281 281 281 281 282 284 285
Wind_Speed
3 9 5 9 11 13 13 14 13 13 13 13 13 13 13 13 13 12 12 11 12 12 13 12 12 12 12 14 14 14 12 12 12 13 13 14 14 15 15 15 15 16 16 17 17 17 18 17 17 17 17 17 16 16 16 15 15 15 15 14 14 13 12 11 11 12 13 15 15 15 15 15 16 16 16 17 19 18 18 17 14 10 8 12 17
6 6 5 6 11 12 13 13 13 13 13 13 13 13 12 12 12 11 10 11 12 12 12 12 11 12 13 13 14 14 14 13 12 12 13 13 14 14 14 15 15 15 16 17 17 18 17 17 17 17 17 16 16 15 15 14 14 14 14 13 13 13 12 11 11 11 10 9 11 12 13 15 15 15 16 17 18 19 18 18 18 10 8 17 18
7 6 4 8 10 10 11 12 13 13 14 14 13 12 12 11 11 11 10 11 11 12 12 11 12 13 12 13 14 14 14 14 13 13 12 13 14 13 13 15 15 15 16 17 17 17 17 17 17 17 17 16 15 15 14 14 13 13 12 12 12 12 12 11 10 10 9 9 8 7 11 15 14 14 15 16 18 18 18 19 18 16 11 19 16
9 5 4 8 10 9 9 11 13 13 13 13 13 12 11 11 11 11 10 10 11 11 12 12 11 12 13 14 14 13 13 13 12 12 12 12 12 12 13 14 15 15 16 17 17 17 17 17 17 17 16 16 15 14 14 13 13 12 12 12 12 11 12 12 12 11 11 8 5 6 4 6 8 13 14 15 17 17 17 17 17 17 17 15 17
9 7 5 6 6 8 9 9 12 13 14 13 13 12 11 11 11 10 10 10 11 11 11 11 11 11 12 13 13 13 13 12 11 12 12 12 12 13 12 13 14 14 15 17 17 17 17 17 17 17 17 16 15 14 14 13 13 12 11 12 11 11 12 12 13 13 15 11 7 6 4 5 5 11 13 15 17 17 16 17 16 16 16 16 15
8 7 6 6 6 7 8 9 11 13 12 12 12 11 11 10 10 10 10 10 10 10 12 11 11 11 12 13 13 13 12 12 11 11 11 11 11 13 12 12 12 14 14 16 17 17 17 17 17 16 16 16 15 14 14 13 13 12 12 11 12 11 11 12 12 13 12 9 9 4 4 5 4 5 14 13 17 17 17 17 16 16 15 16 15
10 6 6 7 7 7 9 9 11 12 12 13 12 11 11 10 10 9 10 10 9 9 9 11 11 11 12 12 12 12 11 11 11 10 11 11 11 12 12 11 12 12 13 15 17 17 16 16 16 16 15 15 14 14 14 13 13 12 12 12 12 12 12 12 11 12 11 5 4 4 5 5 4 3 13 15 17 17 17 17 16 15 15 15 15
7 6 6 5 6 8 11 10 8 10 12 12 11 11 11 10 10 9 9 9 9 9 10 9 10 10 10 11 12 11 11 10 10 10 10 10 11 12 12 12 12 12 14 16 16 16 16 15 15 15 14 14 14 13 13 13 13 13 12 13 13 13 13 12 12 11 10 4 4 5 5 5 4 4 14 16 17 16 16 16 15 15 15 15 13
7 7 7 7 6 11 10 10 10 11 11 11 11 10 10 10 9 8 9 9 7 8 9 9 9 9 10 10 11 11 11 11 10 9 10 10 11 11 12 12 13 13 13 15 15 15 15 15 14 14 13 13 13 13 13 13 13 13 13 13 13 13 13 12 11 10 6 5 6 6 6 5 4 4 11 16 16 16 16 13 11 15 15 14 13
4 7 5 6 8 12 11 11 11 11 11 10 9 10 10 10 9 8 8 8 7 8 9 10 9 8 9 9 10 10 10 10 10 10 9 9 10 11 11 12 12 12 14 14 14 14 14 14 14 13 13 12 12 12 12 13 13 13 13 14 14 14 13 12 10 7 5 6 7 6 6 7 4 4 10 16 17 16 15 16 12 12 11 14 14
7 7 4 5 7 11 11 11 11 11 11 10 8 9 9 9 9 9 8 8 8 8 9 9 9 8 8 9 9 9 9 9 9 9 9 9 9 10 11 12 13 14 13 14 13 14 14 14 13 13 13 12 12 12 12 12 12 13 13 14 14 14 13 12 8 5 7 8 7 6 7 11 4 3 12 15 17 15 15 15 14 13 14 14 14
6 5 5 6 8 9 9 9 11 10 10 10 11 10 10 9 8 8 8 7 7 7 8 9 9 8 8 8 8 9 9 8 8 8 9 9 10 10 10 11 12 13 13 13 14 14 13 13 13 13 12 12 11 11 12 12 12 12 13 13 14 14 12 12 6 7 7 7 6 5 5 5 4 7 15 15 15 15 15 15 14 13 13 14 13
6 6 5 5 6 8 8 8 8 9 10 10 11 11 10 10 8 8 8 8 7 6 6 8 8 7 7 8 8 8 8 8 8 8 8 9 10 10 9 10 12 13 13 13 13 13 13 13 13 13 12 11 11 11 11 11 12 12 12 12 13 13 11 11 5 8 8 7 7 7 7 5 4 11 13 14 14 15 15 15 13 13 13 14 13
6 5 4 5 5 8 9 8 7 6 7 8 9 9 10 9 9 7 8 6 7 7 6 7 8 7 7 7 8 8 7 8 8 8 8 8 10 10 9 10 11 12 13 13 13 12 12 12 13 13 12 12 11 11 11 11 11 11 11 12 12 12 10 7 6 7 8 7 7 7 7 6 5 12 12 13 13 14 14 14 12 12 13 13 13
6 5 4 3 4 5 9 9 7 7 6 6 7 6 7 8 8 7 7 6 5 6 6 7 7 7 6 6 7 8 8 7 6 6 8 9 10 9 9 8 10 12 13 13 12 12 12 13 13 13 13 12 11 11 11 11 11 11 11 11 11 9 9 5 6 6 7 7 5 6 7 5 9 12 12 11 12 14 14 13 11 12 12 12 12
6 5 5 5 4 2 4 7 10 9 6 7 6 6 6 6 6 5 6 7 7 7 6 6 7 8 7 7 6 8 7 8 6 6 7 9 10 9 9 8 10 11 13 12 12 11 11 12 12 12 13 12 11 11 11 11 11 11 11 11 9 8 10 6 7 6 6 6 5 5 6 5 11 12 12 13 13 13 13 12 10 11 11 12 12
7 7 7 5 5 4 2 3 6 9 8 8 6 4 6 6 5 6 5 4 4 5 6 5 6 6 7 7 7 6 6 8 7 6 7 8 9 8 6 8 10 10 12 12 11 11 11 12 12 11 12 12 12 11 10 10 11 11 11 11 10 10 11 9 7 6 6 6 5 5 5 5 8 11 13 13 13 13 12 11 10 10 11 11 11
6 7 7 5 5 4 5 3 2 3 2 2 3 5 5 5 4 5 4 4 2 4 4 5 4 4 5 6 6 5 5 7 7 6 5 8 9 7 5 6 9 10 11 11 11 10 10 11 11 10 11 11 11 11 10 10 10 11 11 10 9 10 11 10 6 6 6 5 5 4 5 7 9 9 12 13 13 13 11 10 10 10 10 10 10
7 8 8 8 6 5 5 4 5 3 1 4 4 4 6 6 6 5 4 4 5 5 6 5 5 5 6 7 6 5 4 6 7 7 7 8 9 8 6 4 8 10 11 11 10 10 9 9 9 9 9 9 10 11 10 10 9 10 11 9 10 10 10 7 5 5 5 5 4 5 5 9 8 10 10 12 12 11 10 10 10 11 10 10 9
6 8 8 8 7 7 6 6 5 3 3 1 3 4 5 7 6 6 6 7 6 5 6 5 7 6 7 8 7 6 5 4 6 5 7 7 7 5 6 4 8 10 11 10 9 9 8 8 8 9 8 7 8 8 7 8 8 8 8 9 9 9 7 5 5 5 5 5 3 4 6 10 9 9 9 10 10 10 9 9 10 9 10 9 9
5 7 6 7 7 7 8 7 6 5 3 3 1 4 5 7 5 6 7 7 7 7 6 6 6 6 5 6 7 4 3 3 4 4 6 5 6 8 8 6 6 10 10 10 9 8 8 7 7 7 8 6 4 5 5 5 5 6 7 7 8 7 5 5 4 4 5 4 4 4 8 8 9 8 8 8 8 9 9 8 9 8 9 9 9
5 5 6 7 7 7 7 7 6 6 5 3 3 1 4 5 5 5 4 5 5 5 4 4 4 3 5 5 2 2 2 2 3 4 4 5 6 8 8 7 5 9 10 9 9 7 7 6 6 6 7 5 4 2 2 4 4 5 5 7 5 4 4 5 4 4 4 3 3 5 8 8 8 8 8 9 9 8 6 8 8 8 7 6 7
6 5 6 7 6 6 6 7 6 5 5 4 2 2 4 6 4 5 4 5 5 5 3 3 3 2 3 3 3 1 1 2 2 5 5 6 6 7 6 6 6 9 10 9 8 7 7 6 5 5 6 4 0 0 1 2 4 6 6 4 4 4 4 5 4 4 3 2 3 6 8 7 7 7 7 7 7 8 8 8 6 5 5 6 5
4 4 4 5 6 6 6 5 6 6 5 5 3 1 3 2 5 4 4 4 4 3 2 2 2 3 2 3 0 1 2 3 3 5 4 3 3 4 5 5 7 6 8 6 6 6 5 5 3 3 4 2 0 1 2 3 3 4 4 4 4 4 4 4 4 3 2 2 3 6 8 8 7 7 6 6 6 6 7 7 8 10 9 10 6
3 4 5 5 5 5 5 6 7 6 4 5 4 4 1 2 2 4 4 4 4 3 4 4 4 4 4 3 2 3 4 2 2 3 4 2 2 1 1 2 4 3 5 3 3 2 3 1 2 1 1 1 2 3 4 4 3 4 4 4 3 4 4 3 3 3 2 1 2 5 7 8 9 8 8 7 7 7 7 7 7 8 9 10 15
5 6 5 5 4 4 4 5 6 5 4 3 3 4 5 6 6 7 6 6 7 7 6 6 6 6 4 3 0 5 6 5 3 2 1 2 3 3 2 1 1 4 4 4 3 4 1 1 1 1 0 3 3 3 3 4 4 3 3 3 3 3 3 3 3 3 1 1 2 5 6 8 11 11 10 9 9 9 8 9 9 8 8 10 10
5 4 4 4 4 5 6 5 5 5 4 3 3 4 6 7 7 7 8 6 7 7 7 7 6 7 7 5 6 6 6 4 5 4 5 4 3 2 1 2 2 2 2 4 2 2 2 1 1 1 4 2 3 3 3 3 3 3 1 2 3 3 3 3 3 4 3 1 3 5 6 8 11 12 13 13 12 11 10 10 10 10 9 8 8
4 5 4 5 5 7 6 5 4 3 3 3 5 6 6 8 8 8 8 7 8 7 6 6 7 7 7 6 5 5 6 6 5 6 5 5 6 6 5 4 2 2 2 2 2 2 3 3 3 3 5 4 4 3 3 2 1 2 3 3 4 3 4 3 3 4 4 2 1 4 5 6 8 10 13 14 15 15 15 14 13 13 12 11 10
5 5 4 5 7 7 7 5 4 4 3 6 7 7 7 8 8 8 8 7 8 7 6 6 7 6 7 8 6 6 6 7 7 6 5 7 7 7 7 6 6 6 5 6 5 5 4 4 5 3 3 5 3 3 3 4 5 5 4 4 4 4 4 4 4 4 4 4 3 3 4 5 7 9 11 13 15 16 17 17 17 17 16 14 13
4 4 5 5 6 7 7 7 5 5 7 7 6 7 7 9 8 9 7 8 8 7 7 7 7 8 7 7 8 7 7 7 7 7 8 8 7 7 7 7 7 6 6 7 4 5 4 5 5 5 5 5 6 6 5 5 5 3 4 4 3 3 3 3 4 4 4 4 4 3 5 5 6 8 11 13 15 16 17 17 18 18 18 18 17
4 5 4 5 5 5 6 6 6 5 7 8 7 8 8 9 8 8 8 8 7 8 8 8 8 8 7 8 8 8 7 7 8 7 7 7 7 8 8 6 8 7 6 7 6 6 6 6 6 6 5 5 5 5 5 5 5 6 5 5 5 5 5 4 4 4 4 4 5 4 4 6 7 8 10 13 15 15 16 18 19 19 19 19 18
4 5 4 4 5 6 6 7 5 6 10 8 9 9 9 9 9 9 9 8 9 8 8 8 8 8 8 9 8 7 7 7 8 8 8 8 7 8 7 8 7 7 7 7 7 6 6 5 6 5 5 5 5 5 4 5 5 5 5 5 6 6 6 5 4 4 3 4 5 5 6 8 11 10 10 13 14 14 16 18 19 19 18 18 19
1 2 4 4 6 5 6 7 6 8 10 9 9 9 9 9 9 9 8 8 9 8 9 8 8 8 8 9 8 8 8 7 8 9 9 8 7 8 8 8 8 7 6 8 9 8 7 6 7 6 7 6 8 8 6 6 6 6 5 5 5 6 6 5 6 3 4 5 7 7 7 7 6 10 12 13 14 16 17 18 19 19 20 20 19
2 3 3 6 4 3 4 5 7 10 10 8 9 9 9 9 9 9 9 10 9 9 9 8 8 8 7 9 9 10 9 8 9 9 8 8 8 9 8 8 7 7 7 8 9 8 7 8 7 8 8 8 8 7 7 7 6 5 6 5 5 5 5 6 6 5 6 7 7 7 7 7 7 7 7 10 12 13 17 18 19 21 21 21 20
3 3 5 5 7 6 4 6 7 9 9 11 11 11 9 9 10 9 9 9 9 9 8 8 8 7 7 9 10 10 10 10 9 8 9 8 9 9 9 8 7 7 7 7 6 7 9 10 8 8 7 8 7 6 6 6 6 7 6 6 5 5 5 5 6 6 6 6 7 7 7 7 7 6 6 7 9 13 16 18 21 21 22 21 20
4 3 4 5 8 7 6 9 9 10 8 12 9 11 11 11 10 9 9 9 9 9 8 8 7 7 8 9 10 10 10 10 10 9 10 9 9 9 8 8 8 7 7 8 8 8 7 9 9 7 8 8 7 8 6 6 6 6 5 6 6 5 6 5 6 6 6 7 7 7 7 7 8 7 7 7 8 10 17 17 20 21 21 21 21
4 4 5 6 8 7 7 10 10 11 11 12 10 11 12 11 12 11 10 10 10 9 8 7 8 9 8 9 9 10 10 11 10 10 10 9 9 9 7 8 7 7 8 8 8 7 6 7 8 8 7 7 8 8 7 7 6 5 5 6 4 6 7 6 6 5 5 7 7 8 8 8 8 10 8 8 8 8 13 17 18 18 18 21 21
3 4 6 7 8 8 7 7 9 10 9 9 9 11 11 11 11 10 11 11 10 8 7 8 9 8 9 9 9 10 10 10 10 9 10 9 9 9 8 8 7 8 8 9 8 7 7 6 8 8 9 8 9 8 8 7 5 5 5 6 7 8 8 8 8 8 7 8 8 8 8 7 8 7 8 8 7 8 9 12 15 15 15 20 21
4 5 8 8 9 10 9 9 10 10 10 11 11 12 12 11 10 11 11 10 9 8 7 9 8 8 9 9 9 9 9 10 10 9 10 9 9 9 9 8 8 8 9 9 9 9 8 8 8 8 7 8 7 6 5 6 5 5 6 7 8 9 8 9 9 8 8 7 8 7 8 8 8 8 8 8 7 8 9 9 9 9 10 16 20
3 5 5 5 6 6 5 7 8 8 8 8 8 9 8 9 10 9 11 9 8 8 8 8 7 9 8 9 9 9 9 9 9 9 10 9 9 9 9 9 9 9 11 11 9 9 9 8 8 7 8 9 11 10 9 8 4 8 8 7 7 8 10 9 10 9 8 9 7 8 8 8 8 8 8 7 7 7 8 8 9 9 8 11 17
4 5 5 5 6 7 9 9 6 5 7 8 7 7 9 9 8 10 10 7 8 8 9 8 9 8 9 9 9 9 9 10 9 9 9 9 9 8 9 9 8 10 10 9 8 9 8 7 5 6 9 11 12 12 12 5 7 6 5 4 4 5 7 10 10 9 8 7 7 8 7 9 8 8 6 7 7 7 7 8 8 9 9 8 9
4 5 6 6 7 8 9 8 7 7 6 7 7 6 5 7 10 8 8 6 6 8 9 7 8 8 9 9 9 9 10 9 8 8 9 9 9 9 10 9 9 8 8 8 10 10 10 10 6 7 7 9 8 9 11 7 7 3 3 4 7 4 5 8 12 8 8 7 6 7 8 9 9 8 7 7 8 7 7 7 7 9 9 8 8
6 5 5 7 8 8 7 7 7 8 7 8 9 10 8 7 10 6 9 8 6 7 8 7 7 10 9 9 9 9 9 9 8 9 9 9 10 10 9 8 9 7 9 10 9 10 8 9 8 6 6 5 6 7 10 9 4 3 0 2 3 5 6 6 5 7 9 6 6 8 8 8 10 8 7 8 8 9 7 7 8 9 10 9 8
6 5 6 7 7 7 7 8 8 7 8 7 10 10 11 10 11 10 8 9 9 7 9 7 9 10 11 9 8 8 9 9 9 9 9 10 10 10 8 9 9 7 8 9 9 9 9 9 9 9 5 8 6 8 8 9 8 5 4 2 1 2 4 5 9 5 4 4 9 8 7 9 11 11 8 8 8 9 8 7 9 10 9 9 8
5 5 6 6 6 8 7 8 8 8 9 9 12 12 12 11 11 10 10 10 7 7 8 9 8 8 9 9 8 8 9 10 9 10 10 10 9 8 9 8 8 7 7 8 8 8 7 7 8 8 8 5 7 4 7 7 9 7 3 3 4 5 0 5 5 6 6 6 7 8 6 9 8 9 7 7 9 9 8 10 10 9 9 9 8
6 4 5 6 8 8 8 8 8 9 10 10 12 11 11 12 12 12 10 9 9 7 8 9 8 8 9 6 9 8 9 10 9 9 9 8 9 8 7 8 7 7 7 7 7 8 9 9 7 7 8 6 6 8 7 7 5 8 7 5 3 2 2 4 5 5 5 1 3 6 5 7 7 8 6 7 9 8 8 8 9 10 9 9 8
5 5 6 7 8 8 8 9 9 9 9 9 8 9 9 7 6 7 9 10 12 5 5 6 8 7 7 9 8 8 8 9 8 8 8 7 8 7 8 8 7 7 6 7 8 8 7 6 6 8 7 6 6 8 7 5 5 7 7 5 5 3 0 3 3 3 6 5 3 6 4 9 8 8 7 9 9 9 9 8 8 8 9 9 9
5 5 6 7 9 9 8 9 9 9 7 7 5 6 9 7 8 8 9 8 11 11 8 7 7 8 10 8 7 7 7 7 8 8 8 8 8 8 7 7 8 6 7 7 7 6 6 6 6 6 7 7 6 7 6 6 6 4 5 8 7 5 4 5 4 2 2 7 8 2 1 7 7 6 5 8 8 9 10 9 9 9 8 9 9
6 7 6 7 7 7 8 7 8 7 6 6 7 6 7 8 9 10 11 8 10 10 8 7 8 7 10 7 8 7 7 8 8 8 8 8 8 7 7 7 7 6 6 6 6 7 8 8 8 8 7 7 6 5 6 6 6 5 5 6 5 6 4 4 4 5 2 3 6 5 10 4 3 4 8 5 6 9 9 8 8 8 7 8 8
5 6 6 7 7 7 8 8 7 7 7 8 10 9 7 8 10 10 15 11 9 9 8 9 8 7 10 8 7 7 6 7 7 7 8 7 7 7 7 7 6 6 6 6 6 7 7 6 6 6 6 7 5 6 6 5 5 4 5 3 5 5 5 4 3 4 2 0 3 9 6 10 12 7 6 7 8 8 7 6 8 8 8 8 8
5 6 7 7 7 7 8 9 7 7 8 9 11 11 7 7 10 11 13 14 11 11 11 9 8 8 10 8 7 7 6 6 6 7 7 6 7 6 6 6 5 5 6 7 6 6 6 6 5 6 7 7 6 6 6 5 5 5 5 6 5 5 3 3 3 4 3 2 5 6 7 6 7 10 2 6 9 9 6 6 6 6 6 7 7
Wind_Direction
181 138 143 141 135 138 138 134 131 127 121 114 112 110 108 107 104 103 103 102 96 95 93 94 95 87 85 83 82 81 81 85 80 74 77 83 81 78 77 75 73 71 69 66 64 62 60 57 54 51 47 44 42 40 41 39 39 38 36 35 31 29 30 36 36 36 45 49 51 54 54 56 56 55 57 59 59 58 56 52 47 43 42 47 50
166 141 143 137 137 141 138 137 134 129 123 119 114 110 108 106 106 105 103 102 101 99 97 95 91 83 86 86 79 73 73 77 81 80 78 80 82 83 82 79 77 77 73 70 66 62 58 54 50 47 43 40 38 38 38 39 38 38 37 34 30 22 16 21 29 26 23 22 38 48 57 58 61 63 61 60 58 56 55 54 49 42 36 39 40
133 132 148 135 136 139 139 138 133 128 124 119 115 112 111 110 110 109 107 105 102 102 100 99 95 91 82 81 81 75 70 69 73 73 74 78 81 82 81 80 76 72 74 72 67 63 58 54 51 48 43 39 36 35 34 36 36 36 37 36 32 23 8 6 20 20 16 14 21 33 56 59 54 64 70 68 65 59 53 50 48 45 39 37 35
127 140 131 127 127 138 145 139 133 130 127 123 119 119 117 115 114 113 110 107 104 101 99 98 94 90 84 79 78 76 73 71 70 75 77 81 86 85 81 82 77 74 72 69 66 61 57 53 51 48 45 40 36 34 33 33 35 35 35 34 30 22 8 3 6 5 8 20 45 56 47 66 57 55 61 71 70 64 58 51 46 44 42 38 34
137 141 129 124 123 139 143 130 134 132 130 127 126 124 121 120 118 117 114 109 107 104 101 102 100 94 92 88 82 77 74 73 70 72 78 79 82 81 79 79 86 79 74 71 66 60 55 51 49 47 43 39 36 33 32 32 33 34 35 34 28 19 10 8 4 3 10 26 83 62 33 57 60 60 63 61 65 62 57 52 47 43 41 39 34
141 140 138 129 124 136 138 138 139 135 132 128 128 125 123 120 121 119 115 112 108 107 110 105 101 101 95 89 84 80 76 71 70 67 72 78 82 84 77 73 69 78 71 70 67 61 55 51 47 46 43 38 35 33 33 33 33 33 33 32 27 19 12 10 7 3 9 15 64 62 52 51 51 51 66 63 59 56 54 52 48 44 41 38 36
142 145 145 140 133 140 142 143 144 140 136 134 132 129 127 126 125 121 118 117 112 108 105 110 111 104 98 96 92 89 83 76 72 68 67 77 84 87 84 79 74 73 79 70 66 61 57 53 49 46 44 40 36 35 34 34 34 35 33 28 23 17 12 13 7 358 359 39 58 74 63 55 42 51 63 63 60 55 53 49 46 44 42 41 37
135 146 145 134 134 144 142 147 149 139 142 139 137 135 134 131 129 128 124 121 120 118 114 112 109 110 106 104 102 97 91 87 82 77 71 74 84 85 86 80 74 71 72 70 68 64 59 55 52 49 47 44 40 39 39 38 37 36 33 27 24 21 18 12 4 355 2 28 59 61 66 57 39 35 64 63 61 58 53 48 44 43 44 43 41
142 151 146 138 137 140 145 145 144 146 144 141 139 137 137 131 130 131 130 128 127 121 119 115 109 112 114 108 105 100 97 92 87 81 77 77 84 88 87 82 78 79 77 75 72 68 63 59 54 53 51 49 45 45 44 42 40 37 32 29 28 26 17 9 5 3 9 33 60 66 66 59 49 44 60 63 60 58 53 49 42 40 42 43 44
133 144 135 142 146 144 144 150 149 150 149 149 144 146 140 137 139 138 138 133 130 121 118 122 121 121 114 109 104 101 97 94 92 90 84 83 86 91 91 88 90 89 85 79 75 72 66 61 56 53 53 52 52 52 51 46 42 39 35 33 30 22 13 10 18 17 25 38 61 69 67 68 55 53 60 68 64 58 53 48 45 43 43 43 41
100 116 111 116 130 138 143 144 145 151 152 152 151 141 147 144 146 145 143 143 137 134 128 129 131 127 116 110 105 102 97 93 96 94 93 91 91 93 92 92 95 96 91 81 77 72 67 62 58 54 52 52 52 55 56 52 47 42 39 36 30 22 15 9 19 27 37 53 56 49 55 62 56 53 66 71 66 57 53 50 45 43 43 42 40
61 83 94 101 107 115 129 132 140 146 149 154 152 149 160 149 151 151 149 146 145 139 139 136 133 130 125 118 110 106 105 102 101 99 93 90 89 94 98 93 95 93 86 82 77 74 69 64 59 56 53 53 53 53 54 55 51 47 43 38 31 24 18 18 22 32 37 50 53 43 35 27 35 58 58 61 58 48 49 46 44 43 42 42 41
60 72 85 87 89 94 102 122 131 140 152 158 155 157 154 152 154 161 153 151 146 141 140 135 135 134 131 126 121 117 116 115 110 107 102 98 104 103 98 100 98 95 90 83 78 75 70 66 63 58 55 54 56 54 52 53 52 49 44 40 34 27 18 23 24 39 44 48 42 31 26 13 10 56 52 54 50 45 46 42 45 43 42 41 41
61 60 74 82 78 81 89 92 116 126 138 153 161 155 155 153 157 164 152 155 144 144 144 139 142 143 140 134 127 123 120 117 118 116 111 106 110 112 110 106 107 102 96 89 81 74 68 65 62 58 53 53 56 56 53 51 51 48 42 36 33 29 23 26 35 55 55 49 39 32 25 13 48 54 54 52 50 47 47 42 47 45 43 42 42
58 58 74 84 98 98 87 91 99 114 124 138 142 154 150 157 153 167 144 159 140 140 151 139 142 152 143 134 130 123 121 116 110 114 115 115 119 118 110 107 108 104 99 93 86 78 70 66 62 56 50 49 51 53 52 48 48 46 40 35 28 28 29 28 30 56 59 50 35 29 24 7 38 39 37 39 45 48 49 46 50 46 45 43 43
55 64 67 53 50 40 95 100 101 96 111 127 136 143 154 138 146 150 145 170 149 144 141 142 146 153 140 133 131 128 134 126 115 106 112 121 125 120 118 122 115 110 104 98 91 83 76 71 67 60 52 48 50 52 51 46 41 38 32 27 18 17 34 41 42 54 58 52 39 30 14 1 25 40 46 42 42 49 48 47 49 44 45 45 42
44 42 52 50 55 51 27 118 117 114 104 88 87 137 170 150 155 147 156 140 135 149 131 129 149 152 147 141 131 124 138 132 126 118 117 123 125 116 112 121 120 119 111 102 93 88 80 78 74 66 57 52 51 51 49 45 40 31 28 21 15 21 29 41 56 62 56 44 38 26 10 1 16 41 49 51 51 46 44 49 45 40 45 45 41
45 46 41 35 34 36 39 22 84 104 91 68 112 103 135 132 131 149 140 131 124 128 130 130 117 127 119 109 116 131 140 138 139 120 113 112 111 116 123 127 126 120 113 104 103 96 88 84 80 74 63 58 56 53 49 44 37 31 25 19 19 24 31 49 65 67 64 54 36 24 13 358 23 38 43 48 53 48 45 48 42 42 45 42 43
38 36 28 26 20 22 18 33 44 23 127 164 203 159 143 138 156 142 136 106 99 95 96 85 109 117 113 119 116 114 115 136 142 138 118 125 128 128 131 126 129 121 117 115 110 107 101 96 93 89 80 67 62 58 54 48 39 34 28 22 26 26 33 49 67 69 63 52 35 29 9 5 30 38 44 46 48 46 45 46 42 39 41 33 45
50 39 29 19 13 15 12 11 18 37 43 337 229 179 170 152 167 163 164 162 131 138 127 120 114 111 116 124 125 128 134 146 156 145 132 132 126 123 123 116 132 137 128 127 124 119 114 109 106 106 100 88 76 69 62 58 52 44 38 38 30 28 29 39 60 61 55 45 38 19 13 16 26 42 44 48 48 46 42 44 44 40 39 34 34
42 36 38 19 14 13 6 13 356 6 15 21 341 194 159 148 155 155 158 162 151 147 130 111 104 107 121 132 137 150 159 150 171 151 132 125 144 141 141 144 140 141 135 134 133 127 122 117 119 114 114 108 99 85 83 71 59 57 56 53 42 32 34 46 55 62 54 40 28 7 21 22 20 36 35 41 47 47 40 36 41 27 39 30 35
41 27 26 26 20 6 360 357 354 355 351 2 5 104 146 164 152 150 148 149 148 140 141 136 143 141 152 153 159 152 163 171 183 157 149 139 149 152 152 154 137 136 141 143 143 136 126 129 129 122 119 126 120 94 71 71 65 68 76 68 52 44 45 57 55 63 64 39 28 13 23 23 23 29 29 27 30 40 51 43 37 33 28 36 34
31 22 24 24 16 2 357 348 343 343 346 341 9 59 163 160 152 149 144 157 149 155 156 157 160 125 62 41 30 11 275 210 207 176 165 155 149 161 153 152 137 149 149 150 149 149 140 144 137 127 121 121 77 307 25 34 28 53 63 57 62 51 50 59 67 67 72 61 31 26 22 22 19 17 25 25 33 32 26 25 40 38 21 9 37
32 25 26 21 13 2 344 332 330 330 340 324 342 108 186 191 165 163 150 154 155 138 110 68 83 91 102 91 241 309 88 112 57 38 85 107 124 160 167 151 135 142 145 144 149 152 152 144 146 93 83 78 326 71 64 41 32 44 50 37 40 51 64 61 82 82 64 41 32 33 24 18 15 9 4 9 12 22 18 15 8 15 9 353 355
33 18 25 20 2 343 338 331 323 314 323 320 326 319 342 139 152 134 123 101 73 69 80 61 72 100 95 33 10 71 64 67 90 82 98 90 107 54 131 161 142 133 144 137 141 127 103 101 68 37 68 69 118 82 80 71 52 50 49 45 38 34 42 50 71 89 88 41 36 38 23 11 8 8 3 357 356 355 358 352 354 354 357 354 3
23 36 10 10 338 330 328 311 311 299 290 296 294 332 41 74 76 84 79 74 85 75 68 63 58 50 57 54 45 71 63 19 18 67 61 123 142 136 120 359 93 139 151 133 155 143 138 187 98 273 40 125 117 93 83 100 87 56 59 54 50 38 45 47 50 77 77 62 6 38 26 10 4 2 1 360 1 353 345 342 339 341 344 354 4
26 25 7 3 325 331 321 310 296 290 291 274 333 54 70 71 73 74 83 69 68 69 68 63 56 57 54 49 79 76 75 66 48 33 48 36 51 75 97 118 106 147 120 113 126 165 181 45 108 67 100 101 79 87 97 94 107 118 111 68 59 49 46 42 32 33 57 46 12 30 20 16 10 1 357 357 356 356 354 350 343 337 340 342 352
36 22 4 339 337 330 320 312 302 273 276 348 64 80 76 75 75 74 72 71 72 64 64 67 60 53 51 51 64 73 80 79 66 52 42 52 47 39 38 39 53 89 109 99 125 52 52 68 70 78 82 68 66 30 37 29 63 163 82 35 28 19 17 36 28 17 52 19 16 12 16 12 14 6 1 357 355 355 356 354 350 348 348 343 341
36 20 356 344 335 329 321 332 355 360 68 90 83 83 81 80 77 77 75 71 69 65 61 58 63 55 49 52 49 68 63 62 59 54 59 59 55 46 47 34 40 44 55 52 67 74 62 63 57 36 56 63 52 37 32 36 20 13 56 35 32 23 8 18 15 21 27 47 18 348 357 4 8 6 6 3 2 1 358 358 356 356 352 350 347
31 15 353 341 330 326 340 350 7 47 84 80 86 79 79 82 76 76 77 69 67 65 58 49 48 46 39 42 49 54 61 61 60 52 56 53 48 46 46 40 39 27 46 51 36 59 55 46 47 43 44 33 28 8 12 25 25 21 32 55 26 37 31 25 23 11 14 42 40 15 352 4 2 4 6 5 9 8 7 7 4 0 358 356 353
28 6 351 346 319 339 3 7 39 59 79 81 81 79 77 77 74 73 67 67 66 62 56 53 49 48 42 37 40 51 59 57 61 59 61 60 53 51 50 46 46 37 40 52 44 49 49 50 43 41 35 36 26 14 27 33 31 26 14 22 359 8 9 12 27 17 23 15 26 32 14 15 7 9 8 6 8 11 14 13 7 3 359 356 355
27 5 347 324 354 12 15 21 40 66 81 82 79 76 73 71 70 69 64 65 66 62 59 55 52 50 44 46 43 34 53 68 67 66 62 56 53 56 48 46 45 45 46 49 50 52 46 43 48 47 43 42 25 21 17 44 35 28 18 19 7 17 5 350 9 20 33 35 33 34 41 41 34 33 20 13 17 20 19 14 10 8 7 3 359
24 357 344 7 26 21 34 30 31 66 76 75 78 77 74 73 72 69 67 66 65 63 60 53 53 50 49 54 54 55 47 50 59 60 59 55 54 55 50 45 39 34 40 51 49 43 43 35 37 35 35 32 33 17 13 28 25 8 16 21 16 8 354 356 355 14 31 37 33 36 41 40 35 32 28 25 29 28 22 19 18 18 15 11 7
43 17 22 41 36 37 56 55 44 67 70 70 83 78 75 73 75 73 68 66 62 62 56 52 50 48 49 52 60 57 56 53 59 61 60 60 58 56 53 47 38 39 41 42 50 43 45 44 37 43 34 35 29 18 16 12 4 358 9 -0 10 3 1 1 351 7 44 49 50 46 40 38 32 30 26 25 28 25 23 23 24 22 16 11 9
67 47 46 59 63 54 58 74 54 73 77 82 74 78 79 81 76 72 68 68 66 65 57 53 51 47 49 49 49 53 56 56 54 60 60 59 57 54 46 39 34 34 41 36 51 48 49 47 33 39 33 28 22 20 15 8 358 357 346 349 354 1 11 6 23 46 50 53 51 49 46 41 33 30 28 26 22 17 17 20 23 20 16 12 8
83 72 76 76 78 71 71 90 82 73 80 83 83 92 85 79 80 75 74 68 71 65 59 56 55 52 50 52 46 52 54 55 54 54 61 54 56 53 44 38 35 40 40 38 41 43 51 54 43 40 38 26 18 14 10 6 359 350 343 352 356 5 16 23 39 46 49 56 53 53 47 39 31 23 25 27 24 18 18 18 19 18 15 11 8
96 93 95 95 91 86 73 91 95 91 85 90 91 89 86 83 82 80 76 74 69 67 62 61 59 57 55 56 51 55 56 56 57 58 64 59 58 56 45 43 41 47 46 42 45 40 46 59 50 42 45 35 24 11 6 5 353 348 348 1 355 12 31 29 33 36 46 55 52 52 46 39 34 33 32 29 28 25 22 18 14 12 8 6 7
112 106 100 100 107 108 99 96 103 99 98 95 96 93 88 88 85 81 77 74 70 70 68 65 63 61 60 60 58 60 58 60 60 63 69 66 64 62 53 43 45 49 50 46 44 39 45 49 54 40 36 35 26 16 358 350 346 348 5 16 27 46 37 33 29 33 43 50 52 51 47 40 38 32 31 30 30 29 25 15 10 7 3 2 4
123 116 115 112 110 110 110 105 101 104 103 101 97 89 91 88 84 81 77 75 72 68 68 68 64 64 62 63 63 62 61 62 64 64 70 67 64 59 57 47 49 52 54 50 41 35 38 38 48 39 35 42 34 22 3 338 350 4 37 53 63 53 50 45 44 41 36 40 46 44 43 32 31 28 28 28 29 29 23 20 13 5 357 354 358
120 119 114 111 110 112 117 112 110 112 111 106 102 99 96 94 91 88 77 73 73 74 65 69 68 67 64 66 65 66 63 65 64 66 69 67 67 60 60 50 49 53 54 50 40 37 34 33 34 36 32 30 29 14 12 6 1 47 65 66 56 61 55 53 47 39 35 33 38 42 37 29 31 23 26 26 27 24 21 17 12 4 358 351 352
111 113 101 93 95 102 99 94 90 92 112 111 102 111 108 94 84 84 88 83 84 82 73 69 69 68 67 67 66 65 63 64 60 64 66 69 67 63 61 52 51 55 57 56 51 47 41 41 35 42 41 40 25 10 7 12 32 28 16 35 40 50 64 57 49 38 30 31 34 42 32 33 24 21 12 24 23 18 18 14 9 1 358 352 347
118 111 106 103 103 97 98 103 96 91 91 101 106 86 78 107 110 104 103 91 87 84 85 72 75 71 67 65 66 65 65 63 61 65 67 66 67 62 57 53 50 55 63 58 52 47 42 38 28 45 37 54 47 17 7 13 30 35 353 333 350 353 65 63 45 23 26 32 36 39 33 30 19 11 5 22 16 8 11 6 5 1 352 350 346
117 111 119 109 103 96 99 103 103 105 98 104 106 103 101 105 108 115 111 99 76 88 92 89 83 79 69 65 63 64 67 65 63 64 67 62 64 64 58 57 53 52 58 51 48 47 42 43 41 54 39 38 61 30 26 38 34 328 281 69 3 5 327 10 31 26 14 18 34 37 26 26 12 9 10 18 8 3 359 358 2 357 348 344 343
113 115 113 111 107 106 110 109 107 107 106 104 102 103 106 105 100 108 96 98 109 95 88 83 79 77 69 66 60 66 67 68 61 63 66 63 61 65 64 58 54 49 59 61 50 48 39 39 41 42 51 56 31 28 31 29 38 20 24 60 304 79 350 344 341 323 3 16 30 26 26 18 10 4 10 9 1 -0 353 352 356 347 342 338 337
122 128 124 124 119 120 120 117 116 114 114 119 116 118 114 106 105 99 98 95 75 82 88 71 70 78 80 62 61 63 66 68 63 63 67 67 64 65 68 65 64 54 59 64 59 53 50 48 44 51 45 73 48 31 19 30 40 34 99 46 7 29 113 272 323 291 353 7 11 20 19 25 14 356 -0 358 2 354 352 348 342 339 336 334 333
129 140 127 124 122 122 121 117 115 119 123 128 128 127 128 130 132 128 120 111 99 88 89 104 92 79 81 89 68 61 67 68 64 67 68 71 71 69 71 72 67 60 59 67 65 56 46 47 38 53 52 39 92 52 28 6 39 48 49 70 118 140 298 291 55 316 340 288 36 10 6 24 7 353 356 359 355 346 346 340 335 333 332 330 327
145 136 121 120 120 123 125 127 127 127 130 133 132 125 121 118 116 113 116 122 116 91 101 95 99 96 91 79 76 65 62 73 68 68 70 72 75 69 69 69 67 66 60 64 60 58 56 53 44 52 51 51 51 67 47 353 357 27 27 47 61 73 120 48 7 308 337 322 12 2 357 10 1 350 355 353 347 347 338 333 328 328 328 327 325
140 124 121 123 127 129 128 130 130 134 136 133 123 121 126 126 121 114 111 113 112 124 120 108 98 100 91 85 83 74 66 66 74 67 66 66 68 65 65 65 67 59 62 64 69 66 65 55 59 64 62 54 60 76 69 31 66 351 8 24 16 18 41 75 71 80 271 308 320 334 80 8 354 335 355 345 343 339 331 328 331 331 331 327 325
134 131 133 132 128 125 123 124 130 132 137 132 123 112 117 130 128 125 112 109 114 117 118 111 106 103 95 88 83 78 71 63 61 67 62 64 64 68 64 65 64 60 62 64 61 60 61 58 48 47 52 52 56 68 71 50 51 38 18 7 16 14 360 41 49 28 34 298 283 340 322 339 347 311 339 336 337 329 321 322 322 326 331 331 335
142 131 130 130 131 129 125 123 126 131 137 130 125 122 126 134 129 130 124 126 126 120 118 116 110 107 98 94 87 80 75 70 62 62 66 60 66 65 67 67 68 66 64 66 65 61 58 64 64 66 59 60 43 58 73 65 67 58 68 55 45 2 16 3 19 4 332 16 336 316 328 333 339 330 322 339 336 317 315 322 326 329 336 337 343
141 135 135 138 139 132 131 124 132 129 132 131 130 131 134 139 134 136 133 135 136 132 126 119 119 113 107 100 97 95 86 80 76 65 66 68 70 68 73 72 69 66 63 59 58 65 64 68 64 60 57 59 50 55 56 54 58 50 45 58 65 78 72 46 336 356 50 343 338 313 326 329 316 317 320 348 322 313 314 316 321 327 335 337 346